TimeMDT,TemperatureF,Dew PointF,Humidity,Sea Level PressureIn,VisibilityMPH,Wind Direction,Wind SpeedMPH,Gust SpeedMPH,PrecipitationIn,Events,Conditions,WindDirDegrees,DateUTC
12:54 AM,30.0,19.9,66,30.22,10.0,ENE,16.1,-,N/A,,Clear,70,2012-10-04 06:54:00
1:54 AM,27.0,19.9,75,30.23,10.0,East,8.1,-,N/A,,Clear,90,2012-10-04 07:54:00
2:54 AM,26.1,19.9,78,30.22,10.0,East,10.4,-,N/A,,Clear,90,2012-10-04 08:54:00
3:54 AM,25.0,19.9,81,30.22,10.0,East,10.4,-,N/A,,Clear,80,2012-10-04 09:54:00
4:54 AM,24.1,19.9,84,30.25,10.0,East,6.9,-,N/A,,Clear,90,2012-10-04 10:54:00
5:54 AM,25.0,19.9,81,30.29,10.0,East,9.2,-,N/A,,Clear,100,2012-10-04 11:54:00
6:54 AM,24.1,19.9,84,30.32,10.0,East,10.4,-,N/A,,Clear,90,2012-10-04 12:54:00
7:54 AM,24.1,19.9,84,30.35,10.0,East,4.6,-,N/A,,Clear,80,2012-10-04 13:54:00
8:54 AM,28.9,21.0,72,30.32,10.0,ENE,8.1,-,N/A,,Clear,70,2012-10-04 14:54:00
9:54 AM,34.0,21.0,59,30.31,10.0,ENE,12.7,-,N/A,,Clear,70,2012-10-04 15:54:00
10:54 AM,37.9,19.9,48,30.28,10.0,ENE,9.2,-,N/A,,Clear,70,2012-10-04 16:54:00
11:54 AM,39.9,19.9,45,30.25,10.0,ESE,8.1,-,N/A,,Clear,110,2012-10-04 17:54:00
12:54 PM,43.0,19.0,38,30.22,10.0,Variable,4.6,-,N/A,,Clear,0,2012-10-04 18:54:00
1:54 PM,46.0,18.0,33,30.19,10.0,Variable,4.6,-,N/A,,Clear,0,2012-10-04 19:54:00
2:54 PM,50.0,17.1,27,30.14,10.0,ENE,3.5,-,N/A,,Clear,60,2012-10-04 20:54:00
3:54 PM,53.1,16.0,23,30.11,10.0,NNW,5.8,-,N/A,,Clear,340,2012-10-04 21:54:00
4:54 PM,52.0,15.1,23,30.10,10.0,Calm,Calm,-,N/A,,Clear,0,2012-10-04 22:54:00
5:54 PM,53.1,14.0,21,30.07,10.0,SW,4.6,-,N/A,,Clear,230,2012-10-04 23:54:00
6:54 PM,51.1,14.0,23,30.07,10.0,East,3.5,-,N/A,,Clear,100,2012-10-05 00:54:00
7:54 PM,46.9,14.0,27,30.10,10.0,East,6.9,-,N/A,,Clear,100,2012-10-05 01:54:00
8:54 PM,44.1,12.9,28,30.10,10.0,NE,18.4,25.3,N/A,,Clear,40,2012-10-05 02:54:00
9:54 PM,41.0,16.0,36,30.09,10.0,ENE,17.3,25.3,N/A,,Overcast,60,2012-10-05 03:54:00
10:54 PM,39.9,17.1,40,30.10,10.0,NE,13.8,24.2,N/A,,Partly Cloudy,50,2012-10-05 04:54:00
11:54 PM,39.0,17.1,41,30.09,10.0,ENE,15.0,-,N/A,,Overcast,60,2012-10-05 05:54:00